Location: ????????
(55.5667°N, 37.5833°E)
Time: 06:01:12
(UTC+00:00)

ATLAS 3B R/B - Pass Details

Date: 14 April 2026
Orbit: 937 x 1257 km, 63.8° (Epoch: 10 May)

Event Time Altitude Azimuth Distance (km) Brightness Sun altitude
Rises 21:41:23 0° 303° (WNW) 4,215 6.2 -24.7°
Reaches altitude 10° 21:44:15 10° 306° (NW) 3,247 5.6 -24.7°
Maximum altitude 21:52:08 66° 29° (NNE) 1,342 3.3 -24.6°
Drops below altitude 10° 21:59:41 10° 111° (ESE) 3,124 5.0 -24.5°
Sets 22:02:24 0° 115° (ESE) 4,046 5.6 -24.4°
